Flag for Venezuela Weather past 2 weeks in Barquisimeto, Venezuela

Now
84 °F

Broken clouds.


Feels Like: 87 °F
Forecast: 71 / 89 °F
Wind: 13 mph from Southeast

Location: Barquisimeto Airport

Current Time: Sep 18, 2014 at 1:24:24 PM

Latest Report: Sep 18, 2014 at 12:30 PM


Visibility: N/A

Pressure: 30.01 "Hg

Humidity: 58%

Dew point: 68 °F

Location of BarquisimetoLocation

Historic Weather in Barquisimeto — Graph

°F

Barquisimeto temperature yesterday

Maximum temperature yesterday: 88 °F (at 1:30 PM)
Minimum temperature yesterday: 70 °F (at 6:30 AM)
Average temperature yesterday: 79 °F

Past Weeks' High & Low Weather Summary

 TemperatureHumidityPressure
High90 °F (Sep 16, 2:30 PM)100% (Sep 8, 1:30 AM)30.07 "Hg (Sep 8, 1:30 AM)
Low68 °F (Sep 4, 5:30 AM)46% (Sep 4, 3:30 PM)29.89 "Hg (Sep 11, 3:30 PM)
Average77 °F77%30.00 "Hg
* Reported Sep 3 11:30 AM — Sep 18 11:30 AM, Barquisimeto, Weather by CustomWeather, © 2014

Note: Actual official high and low records may vary slightly from our data, if they occured in-between our weather recording intervals... More about our weather records

Advertising

Barquisimeto weather history for previous 24 hours

 ConditionsComfort  
Time TempWeatherWind HumidityBarometerVisibility
11:30 AM
Sep 18
82 °FBroken clouds.12 mph62%30.04 "HgN/A
10:30 AM81 °FBroken clouds.10 mph66%30.07 "HgN/A
9:30 AM79 °FScattered clouds.14 mph70%30.07 "HgN/A
8:30 AM77 °FScattered clouds.2 mph74%30.04 "HgN/A
7:30 AM72 °FScattered clouds.2 mph88%30.01 "HgN/A
6:30 AM72 °FScattered clouds.2 mph88%30.01 "HgN/A
5:30 AM72 °FPartly sunny.No wind88%30.01 "HgN/A
4:30 AM72 °FPassing clouds.1 mph88%29.98 "HgN/A
1:30 AM73 °FPassing clouds.9 mph89%30.04 "HgN/A
10:30 PM
Sep 17
73 °FPassing clouds.7 mph89%30.04 "HgN/A
9:30 PM75 °FPassing clouds.12 mph89%30.01 "HgN/A
8:30 PM75 °FPassing clouds.9 mph89%29.95 "HgN/A
7:30 PM77 °FPassing clouds.7 mph79%29.95 "HgN/A
6:30 PM79 °FPartly cloudy.12 mph74%29.92 "HgN/A
5:30 PM79 °FBroken clouds.13 mph74%29.92 "HgN/A
4:30 PM81 °FBroken clouds.15 mph70%29.92 "HgN/A
3:30 PM84 °FBroken clouds.15 mph58%29.95 "HgN/A
2:30 PM88 °FPartly sunny.14 mph52%29.95 "HgN/A
1:30 PM88 °FPartly sunny.17 mph52%29.98 "HgN/A
Weather by CustomWeather, © 2014

See weather overviewHow to use our weather pages